Theta_e
318 318 318 318 318 319 318 319 319 320 320 320 319 320 320 320 320 321 322 323 324 324 324 323 322 322 323 323 325 326 329 328 331 354 355 358 357 357 355 354 354 352 351 352
319 320 320 320 320 319 319 319 319 319 319 319 319 319 320 321 322 322 322 324 324 325 325 325 323 323 323 323 324 326 326 330 330 327 350 354 355 353 356 354 352 353 352 351
319 320 320 320 319 319 319 319 319 319 319 320 320 320 321 321 321 322 323 324 324 324 325 327 328 326 324 325 325 323 323 328 331 335 331 336 347 348 352 353 352 351 352 353
320 320 320 320 319 318 319 319 319 319 319 319 320 321 323 323 323 324 324 324 323 323 324 325 326 328 323 323 323 324 324 327 328 329 336 336 338 347 348 348 349 352 350 351
319 321 320 320 319 319 319 318 318 318 319 320 320 321 320 322 322 324 325 325 325 325 325 326 326 325 324 323 323 324 327 326 326 331 331 334 337 337 337 339 346 343 349 352
318 318 318 319 319 319 319 318 319 319 319 322 320 321 322 324 325 326 327 326 325 324 325 324 323 322 322 323 323 324 324 326 329 331 333 332 335 338 340 341 344 346 342 350
319 318 318 318 318 319 319 320 321 323 324 325 323 324 326 327 327 326 325 325 326 325 324 323 322 322 322 321 322 322 324 323 324 326 329 331 333 335 337 337 340 341 341 341
322 323 320 320 320 320 320 321 322 325 326 324 326 328 327 327 326 327 326 325 325 324 323 322 322 321 321 320 321 322 322 322 324 323 325 328 331 334 334 334 334 336 337 336
323 322 321 323 322 322 320 321 321 325 328 329 326 326 326 328 327 327 325 324 325 325 324 322 321 320 320 320 320 321 320 321 322 322 322 324 328 331 333 335 333 333 335 337
321 325 322 322 322 323 323 323 325 327 337 331 326 327 327 328 327 327 325 324 323 323 322 321 321 321 320 320 320 320 320 320 320 319 321 323 323 324 330 331 334 336 338 338
323 324 323 322 322 323 323 325 326 327 326 332 330 327 326 327 328 328 326 324 323 322 321 321 320 319 318 317 317 317 319 319 319 319 319 318 320 322 325 329 329 334 336 338
321 325 326 323 320 320 322 323 324 332 330 329 331 333 326 326 324 325 324 323 322 321 319 318 318 318 316 316 316 317 318 318 318 318 318 319 319 319 321 324 328 330 332 333
322 323 325 320 317 323 325 324 326 327 329 331 333 327 322 324 322 323 322 322 321 320 318 318 318 318 317 317 316 315 316 316 316 315 315 316 319 319 320 321 322 326 326 327
317 319 320 323 319 321 321 322 322 324 326 328 327 324 322 322 324 322 323 321 320 319 319 318 318 318 317 316 316 315 315 314 314 314 314 314 315 317 318 320 319 322 323 325
317 320 319 318 316 316 317 317 317 319 320 324 321 319 319 320 321 319 320 319 318 318 319 319 318 317 317 316 316 315 314 313 313 313 313 314 314 314 315 316 319 319 321 318
316 321 319 319 317 317 318 318 317 317 318 318 317 318 319 318 317 318 319 319 318 317 317 317 317 317 317 316 315 315 314 314 313 313 313 313 314 314 313 313 315 317 321 319
319 320 319 319 317 320 320 317 317 318 319 318 317 318 317 318 318 318 317 316 315 316 315 315 316 316 315 314 313 313 312 312 311 312 311 311 311 311 311 313 313 314 317 320
317 317 317 319 317 321 316 319 320 318 317 319 320 317 318 317 316 315 314 314 314 313 313 313 313 312 310 310 310 310 309 310 310 309 309 309 309 309 309 309 311 314 315 319
316 318 322 319 319 318 317 319 319 320 319 319 319 318 317 316 314 314 314 313 313 313 311 310 309 309 308 308 308 307 307 308 308 308 308 308 307 307 308 308 310 310 313 315
318 319 318 319 321 321 322 320 317 315 317 318 317 317 316 314 315 314 314 313 312 312 310 309 308 308 307 308 308 307 308 307 308 307 307 306 306 307 307 308 309 309 311 314
321 321 319 318 319 316 319 319 317 320 321 317 315 315 314 315 315 314 313 313 312 310 309 307 307 307 306 306 305 305 306 307 307 307 306 306 305 305 306 307 308 309 309 310
321 322 320 319 319 321 317 317 320 317 316 315 313 314 313 313 312 312 312 310 309 309 308 307 307 306 304 303 302 303 302 302 304 305 305 304 304 304 306 307 307 307 308 309
319 320 320 320 320 316 316 318 317 315 314 313 313 312 311 310 311 310 309 308 308 309 308 306 304 302 301 300 301 298 302 302 301 302 302 302 302 304 305 305 306 306 306 308
316 315 317 315 315 314 314 315 314 314 312 312 312 310 310 310 309 309 308 308 307 307 306 304 302 300 299 297 297 297 297 298 298 299 300 300 302 303 304 305 305 306 306 306
314 312 313 312 313 316 314 313 313 312 312 311 309 310 309 309 309 308 307 306 306 306 303 301 299 297 296 295 295 295 295 295 296 297 298 299 299 300 303 303 303 303 305 306
311 314 315 315 313 314 314 312 311 312 311 309 309 309 308 308 307 306 306 306 305 304 300 297 296 295 294 293 293 293 294 294 295 296 296 297 298 299 300 301 301 301 302 303
Wind_Speed
14 11 14 17 18 19 20 21 16 14 13 15 18 14 14 12 15 15 16 16 15 13 13 10 13 13 11 6 2 5 10 14 14 10 16 19 21 24 26 28 28 29 30 31
14 16 17 18 18 18 18 18 17 17 19 16 16 17 15 18 19 17 16 13 13 14 13 12 13 14 13 13 13 9 10 8 12 18 16 19 21 26 25 27 29 27 32 35
17 18 16 18 16 18 16 15 16 19 19 19 17 16 16 20 19 18 17 14 13 12 11 11 10 12 15 11 8 4 10 11 10 13 20 19 25 26 20 26 35 34 32 34
16 18 19 12 12 13 19 16 19 19 17 14 17 16 18 19 20 22 21 19 16 13 11 9 10 8 10 6 7 8 10 8 8 12 15 20 20 18 25 26 22 31 41 42
15 16 16 15 16 19 18 17 17 19 16 16 19 13 15 16 17 18 16 16 14 13 9 10 9 12 9 7 8 10 13 17 10 5 11 15 17 19 21 23 30 35 30 38
17 21 16 9 12 10 8 14 18 15 15 16 19 18 17 17 18 17 17 14 13 9 13 8 9 4 2 6 7 9 15 14 12 9 11 14 16 19 20 22 23 21 31 26
16 17 17 17 14 15 14 12 10 14 14 15 21 18 15 14 12 10 7 7 14 11 8 6 6 2 5 5 5 9 8 13 14 15 15 15 15 16 18 22 23 25 25 24
10 10 12 9 11 12 16 11 10 19 15 18 22 14 14 15 16 15 10 5 13 10 7 6 2 2 3 6 4 6 8 15 13 18 19 15 13 16 19 19 23 27 27 28
7 16 13 8 15 16 11 11 14 16 15 15 15 23 20 10 13 18 9 7 7 9 8 4 4 5 6 8 6 7 9 9 11 20 24 20 17 18 19 22 27 30 29 28
7 13 11 15 12 18 12 12 6 4 5 13 13 13 10 14 12 9 7 2 5 6 2 4 6 7 8 10 8 13 11 9 8 14 18 17 21 24 21 20 22 25 27 30
9 10 13 14 14 18 16 11 11 11 12 7 11 10 2 10 13 13 4 4 6 6 8 10 11 12 13 18 19 21 12 10 12 14 14 16 18 23 26 23 21 23 25 26
4 4 10 17 19 21 19 19 17 6 10 10 12 8 14 9 7 7 10 8 5 7 10 11 11 14 13 15 15 18 14 8 12 15 18 14 13 18 24 25 24 21 24 23
7 3 7 9 12 8 7 13 11 12 7 8 10 11 7 5 10 14 13 12 13 14 16 12 10 12 13 15 14 15 17 16 15 17 21 23 16 17 21 23 24 25 21 16
5 9 13 13 17 18 18 13 13 12 3 5 13 18 16 12 11 15 14 9 16 14 13 13 12 11 15 15 15 16 18 18 19 20 21 21 23 21 20 24 27 22 25 23
3 9 15 16 17 19 23 24 21 20 22 18 22 21 21 18 17 12 15 11 10 14 13 14 14 11 12 19 17 18 19 17 19 22 23 23 24 24 24 24 27 26 26 30
3 9 13 19 19 21 24 24 23 22 23 22 23 22 19 14 12 7 7 10 12 15 15 14 14 15 11 14 18 21 21 19 19 22 24 24 23 25 25 28 27 29 26 29
5 3 6 14 18 13 15 18 19 13 17 20 15 11 11 9 12 11 11 13 16 17 18 17 16 16 19 21 21 20 24 20 23 25 25 25 25 28 30 27 27 28 28 26
11 11 5 8 13 13 10 8 18 10 9 12 12 10 11 9 11 14 15 14 15 18 20 18 17 22 29 31 28 23 24 26 24 24 24 24 26 28 33 35 33 29 28 25
16 11 3 4 9 16 21 7 3 6 8 11 7 11 13 16 19 18 14 20 18 17 17 18 24 24 26 29 29 28 31 30 29 28 26 27 29 32 30 33 34 35 32 27
13 14 6 7 6 6 7 1 4 4 10 11 11 13 16 17 14 14 20 21 20 18 22 22 25 23 26 26 26 28 27 27 27 28 28 28 28 29 29 33 32 28 28 29
3 3 9 8 7 9 4 3 12 6 4 10 12 14 16 15 13 19 20 19 18 21 23 27 26 20 23 29 30 30 31 27 25 26 28 28 28 30 33 31 28 27 26 26
8 5 5 7 6 7 11 12 5 3 7 11 13 15 17 18 19 20 20 20 20 21 24 28 22 23 33 34 37 27 27 35 35 31 31 28 30 32 31 28 28 29 27 25
4 4 1 4 3 3 6 9 5 6 10 11 15 16 17 20 20 21 20 20 19 21 21 22 23 30 33 31 30 33 29 28 34 32 31 29 30 30 29 28 26 25 25 22
4 3 3 4 2 10 8 3 5 8 12 15 15 18 18 20 21 21 19 19 19 18 21 28 27 24 28 30 30 31 32 29 30 30 30 28 27 27 28 27 25 24 23 23
11 9 10 14 7 16 1 5 12 13 15 16 17 18 19 20 21 20 19 19 18 20 24 24 27 27 30 32 31 31 31 31 30 29 26 26 27 27 27 28 26 25 26 28
10 5 4 4 6 5 11 11 14 14 15 16 18 19 19 19 19 20 18 17 19 20 26 27 29 28 32 33 32 31 30 28 27 26 25 24 24 24 24 23 25 31 36 35
Wind_Direction
217 236 235 232 228 253 270 285 297 290 236 198 214 229 251 264 262 218 216 217 227 227 249 230 229 229 212 175 181 264 268 278 272 257 211 220 228 220 221 228 226 225 213 208
242 226 249 254 255 253 254 266 272 282 291 289 280 267 256 256 259 261 258 242 242 231 222 233 231 211 199 196 208 216 243 267 262 262 260 242 226 222 224 223 227 227 218 215
232 246 246 223 261 267 258 264 272 273 280 281 274 262 268 262 256 259 262 257 239 257 246 226 216 213 194 185 175 270 283 259 255 253 263 278 257 261 257 233 215 218 219 216
246 249 260 241 239 263 273 246 253 261 266 266 266 271 256 252 242 229 231 230 234 230 255 252 238 83 67 27 342 324 297 278 262 267 256 266 274 260 249 251 247 224 217 215
261 254 256 259 277 281 264 258 269 284 281 280 262 265 266 263 257 253 240 227 220 205 212 91 69 53 39 1 323 326 329 277 253 278 292 295 290 279 273 267 246 256 231 219
289 301 292 289 279 320 321 299 283 261 266 257 259 256 260 261 262 259 234 212 200 191 103 97 85 65 335 2 347 355 338 346 335 307 289 275 279 285 291 292 295 286 251 238
261 260 275 287 264 263 269 255 265 253 242 248 243 244 245 274 335 330 311 70 104 104 122 111 94 11 17 340 336 352 333 334 323 319 304 295 289 283 281 283 282 277 281 275
271 275 239 278 271 282 283 276 267 281 285 291 314 290 292 329 310 300 261 126 126 143 147 118 151 260 275 294 330 307 310 315 326 317 302 290 290 291 285 283 275 275 278 277
291 255 291 353 301 312 290 270 293 307 293 271 262 273 272 1 352 351 180 185 139 102 76 42 296 303 331 305 295 301 297 281 315 318 318 305 295 270 270 276 276 279 280 281
274 285 276 286 291 283 281 303 316 247 267 272 271 292 298 353 330 15 329 357 284 66 65 275 298 313 307 304 288 262 264 297 281 289 305 325 318 312 288 275 281 278 277 278
260 261 278 279 264 265 267 224 246 256 262 255 272 271 360 39 354 344 334 323 17 336 326 303 313 313 323 329 317 305 282 275 292 293 277 292 311 317 315 305 273 281 285 285
290 281 279 280 287 275 267 265 260 235 237 240 259 264 288 70 17 343 329 347 323 305 295 297 303 307 312 297 301 306 300 292 294 301 307 286 282 301 308 311 315 293 285 284
4 263 299 291 287 53 10 345 356 321 275 242 268 261 303 2 337 312 298 303 308 300 288 280 286 276 279 279 275 283 308 307 304 307 305 302 297 299 295 304 307 308 308 298
338 270 265 271 284 302 285 248 258 255 231 281 262 280 286 297 199 247 253 282 284 292 288 281 275 300 311 303 303 294 287 294 307 302 297 297 297 295 289 294 294 289 291 291
225 268 270 274 280 280 284 284 279 260 259 260 278 281 286 290 281 291 29 291 281 288 308 308 306 294 287 286 286 285 280 277 287 292 293 291 292 288 288 279 285 289 283 294
248 261 284 284 285 274 271 271 271 269 269 265 268 270 273 313 309 9 337 302 280 281 280 277 283 297 323 338 327 323 323 314 297 280 275 279 284 278 275 284 279 279 274 280
236 240 292 278 291 303 275 264 270 285 298 274 273 312 340 351 360 343 305 312 322 317 315 323 335 330 327 322 316 318 313 297 292 289 292 291 295 298 300 283 277 274 276 264
236 251 266 284 292 272 283 3 321 250 249 26 344 336 21 13 344 325 313 318 356 337 330 327 323 318 314 310 306 307 305 302 294 292 294 291 286 285 289 288 289 284 271 266
215 222 248 259 279 283 285 323 308 52 321 59 12 350 344 338 328 314 326 347 331 326 319 308 303 311 312 304 302 301 294 287 285 281 279 278 281 281 276 282 283 275 279 266
199 211 178 270 280 286 37 218 210 358 290 22 357 340 330 330 314 311 339 323 318 315 307 307 305 306 309 303 301 287 279 280 277 272 265 267 271 271 273 271 269 283 299 257
164 190 226 237 248 266 40 266 277 250 3 336 336 325 318 315 319 319 314 309 309 304 306 317 310 313 313 316 309 299 299 280 275 280 270 270 269 269 269 261 266 271 273 290
196 195 198 220 235 246 8 337 351 340 319 320 330 310 322 318 314 310 317 321 321 318 310 308 319 317 311 304 295 291 287 282 286 286 275 271 272 267 260 256 256 259 260 256
265 226 249 222 284 290 302 297 335 322 313 327 307 323 328 317 318 320 319 315 308 306 316 322 312 307 299 299 298 296 283 287 280 273 271 271 268 259 254 253 251 250 254 257
289 338 247 296 281 293 291 37 291 316 334 304 329 329 325 321 321 316 314 317 314 326 323 323 312 301 300 300 297 289 291 290 288 281 273 269 264 259 254 248 244 243 239 242
273 280 278 281 340 342 135 313 342 335 319 333 326 327 326 321 317 319 316 321 321 319 321 320 309 303 299 299 295 293 288 287 281 278 275 270 268 265 254 244 244 247 247 236
284 339 312 308 311 289 304 330 325 310 327 329 330 327 318 320 322 326 323 320 322 320 321 315 308 303 302 302 298 295 290 285 279 276 271 266 260 259 257 253 247 244 245 245